AAL450 KPSP-KPHX

Flight info

Callsign AAL450
Flight time N/A
Altitude 35000
Route HWRRD1 BLH HYDRR1
Aircraft A319/M-SDE3FGHIRWY/LB1

Departure

Time 2026-04-30 22:36
Airport Palm Springs International Airport (KPSP)

Arrival

Time N/A
Airport Phoenix Sky Harbor International Airport (KPHX)
Time Latitude Longitude Altitude Speed Heading
2026-04-30 22:05 33.82388 -116.50656 428 ft 0 kts 194°
2026-04-30 22:27 33.82397 -116.50654 418 ft 3 kts 194°
2026-04-30 22:28 33.82436 -116.50642 421 ft 3 kts 193°
2026-04-30 22:28 33.82456 -116.50637 419 ft 3 kts 184°
2026-04-30 22:29 33.82511 -116.50651 422 ft 1 kts 145°
2026-04-30 22:29 33.82515 -116.50654 422 ft 0 kts 145°
2026-04-30 22:32 33.82514 -116.50654 422 ft 2 kts 145°
2026-04-30 22:32 33.82402 -116.50557 425 ft 10 kts 143°
2026-04-30 22:33 33.82290 -116.50370 410 ft 14 kts 130°
2026-04-30 22:33 33.82056 -116.50159 415 ft 24 kts 143°
2026-04-30 22:34 33.81902 -116.49816 406 ft 8 kts 316°
2026-04-30 22:35 33.82602 -116.50435 417 ft 127 kts 323°
2026-04-30 22:36 33.85805 -116.53287 2061 ft 148 kts 325°
2026-04-30 22:36 33.86671 -116.54017 2532 ft 160 kts 326°
2026-04-30 22:37 33.90243 -116.56804 3415 ft 241 kts 346°
2026-04-30 22:37 33.91955 -116.56654 3941 ft 260 kts 22°
2026-04-30 22:37 33.94918 -116.53869 5708 ft 279 kts 50°
2026-04-30 22:38 33.96155 -116.49441 7732 ft 287 kts 88°
2026-04-30 22:38 33.95443 -116.44662 9711 ft 295 kts 105°
2026-04-30 22:39 33.94673 -116.42347 10550 ft 302 kts 119°
2026-04-30 22:39 33.89907 -116.36458 12321 ft 347 kts 140°
2026-04-30 22:40 33.84383 -116.30532 14698 ft 362 kts 140°
2026-04-30 22:41 33.79210 -116.23766 16922 ft 377 kts 119°
2026-04-30 22:41 33.77313 -116.17801 18337 ft 387 kts 109°
2026-04-30 22:42 33.73740 -116.05315 20891 ft 404 kts 110°
2026-04-30 22:43 33.71869 -115.98833 22185 ft 412 kts 110°
2026-04-30 22:43 33.70195 -115.92185 23403 ft 422 kts 100°
2026-04-30 22:44 33.69564 -115.85088 24352 ft 432 kts 96°
2026-04-30 22:45 33.68282 -115.70366 26068 ft 454 kts 97°
2026-04-30 22:45 33.67608 -115.62760 26884 ft 464 kts 98°
2026-04-30 22:46 33.66914 -115.54975 27687 ft 474 kts 98°
2026-04-30 22:47 33.65455 -115.38900 29261 ft 494 kts 98°
2026-04-30 22:47 33.64705 -115.30627 30025 ft 503 kts 99°
2026-04-30 22:48 33.63932 -115.22217 30656 ft 511 kts 99°
2026-04-30 22:49 33.62789 -115.09673 30790 ft 486 kts 99°
2026-04-30 22:49 33.61667 -114.97690 30788 ft 482 kts 100°
2026-04-30 22:51 33.59149 -114.73705 30802 ft 480 kts 108°
2026-04-30 22:52 33.56874 -114.62017 30778 ft 480 kts 108°
2026-04-30 22:53 33.53825 -114.46370 30305 ft 486 kts 108°
2026-04-30 22:53 33.52277 -114.38489 29198 ft 485 kts 108°
2026-04-30 22:53 33.51503 -114.34572 28619 ft 481 kts 108°
2026-04-30 22:54 33.49967 -114.26790 27465 ft 477 kts 107°
2026-04-30 22:55 33.47690 -114.15297 25819 ft 468 kts 108°
2026-04-30 22:55 33.46433 -114.08978 24906 ft 465 kts 108°
2026-04-30 22:56 33.44960 -114.01571 24422 ft 446 kts 108°
2026-04-30 22:56 33.42831 -113.90968 23663 ft 430 kts 108°
2026-04-30 22:57 33.41431 -113.84042 23219 ft 426 kts 108°
2026-04-30 22:57 33.40052 -113.77191 22680 ft 421 kts 108°
2026-04-30 22:58 33.38681 -113.70403 22167 ft 417 kts 108°
2026-04-30 22:59 33.36634 -113.60331 21386 ft 412 kts 108°
2026-04-30 22:59 33.34612 -113.50391 20619 ft 406 kts 108°